Weather Roundup
Issued by NWS Springfield, MO

Home | Current Version | Previous Version | Text Only | Print | Product List | Glossary On
Versions: 1 2 3 4 5 6 7 8 9 10 11 12 13 14 15 16 17 18 19 20 21 22 23 24 25 26 27 28 29 30 31 32 33 34 35 36 37 38 39 40 41 42 43 44 45 46 47 48 49 50
000
NZUS99 KSGF 241607
HRRSGF

HOURLY WEATHER
NATIONAL WEATHER SERVICE SPRINGFIELD MO
1000 AM CST TUE JAN 24 2017

......SGF CWA......

CITY           SKY/WX    TMP DP  RH WIND       PRES   REMARKS
SPRINGFIELD    PTSUNNY   44  35  70 SE25G33   29.69F
JOPLIN         SUNNY     52  37  56 S17       29.64F
WEST PLAINS    SUNNY     41  36  82 SE12G22   29.86S
ROLLA          SUNNY     39  35  86 S13       29.83R WCI  31
OSAGE BEACH    SUNNY     41  35  79 SE10      29.78F
BRANSON        PTSUNNY   41  36  81 SE15      29.77S

......SURROUNDING SGF CWA......

CITY           SKY/WX    TMP DP  RH WIND       PRES   REMARKS
CHANUTE        MOSUNNY   49  37  63 SE16      29.58F
PARSONS        SUNNY     52  37  56 SE12      29.60F
COFFEYVILLE    SUNNY     51  37  58 S12       29.59F
EMPORIA        CLOUDY    42  34  73 SE15G23   29.54F
GROVE OK       MOSUNNY   55  37  50 SE7       29.65F
ROGERS AR      CLOUDY    54  37  52 SE13      29.71S
SILOAM SPRINGS MOSUNNY   59  36  41 S18G29    29.68F
HARRISON AR    CLOUDY    46  39  76 SE12      29.77F
NEAR YELLVILLE CLOUDY    43  36  75 SE7       29.80F

......KANSAS AND MISSOURI......

CITY           SKY/WX    TMP DP  RH WIND       PRES   REMARKS
KANSAS CTY INT CLOUDY    33  30  88 E21G26    29.69F FOG     WCI  21
DOWNTOWN KC    CLOUDY    36  33  89 E15       29.70F WCI  27
COLUMBIA       SUNNY     40  34  79 SE12      29.82S WCI  33
SEDALIA        SUNNY     39  36  89 SE15      29.76F WCI  31
ST JOSEPH      CLOUDY    33  32  96 E17G23    29.71F FOG     WCI  22
ST LOUIS       PTSUNNY   42  32  67 E8        29.90R
SPIRIT OF STL  PTSUNNY   43  34  70 E7        29.88S
KIRKSVILLE     CLOUDY    32  30  92 E13       29.83F WCI  22
WICHITA        CLOUDY    50  38  63 S15       29.49R
TOPEKA         CLOUDY    37  32  82 E14       29.63F WCI  28
OLATHE         CLOUDY    36  33  89 E15       29.67F WCI  27

......TENNESSEE......

CITY           SKY/WX    TMP DP  RH WIND       PRES   REMARKS
MEMPHIS        SUNNY     49  39  68 VRB6      29.93R
NASHVILLE      CLOUDY    44  33  65 N6        29.97R

......ARKANSAS.......

CITY           SKY/WX    TMP DP  RH WIND       PRES   REMARKS
FAYETTEVILLE   SUNNY     58  37  45 S18G24    29.71F
FT SMITH       CLOUDY    50  38  63 E13       29.75F
LITTLE ROCK    MOSUNNY   50  44  80 S7        29.90R

......OKLAHOMA.......

CITY           SKY/WX    TMP DP  RH WIND       PRES   REMARKS
TULSA          MOSUNNY   55  36  48 S15G24    29.61F
PONCA CITY     SUNNY     54  36  50 S21G29    29.51F
MCALESTER      MOSUNNY   60  36  40 S10G23    29.67F
OKLAHOMA CITY  MOSUNNY   55  37  50 S21       29.58S

......IOWA............

CITY           SKY/WX    TMP DP  RH WIND       PRES   REMARKS
DES MOINES     CLOUDY    32  29  88 SE9       29.84R WCI  24
QUAD CITIES    CLOUDY    36  30  79 E5        29.89F WCI  32

......ILLINOIS........

CITY           SKY/WX    TMP DP  RH WIND       PRES   REMARKS
QUINCY         CLOUDY    35  30  82 SE10      29.87F WCI  27
CHICAGO        CLOUDY    35  31  85 VRB5      29.89R WCI  31



USA.gov is the U.S. government's official web portal to all federal, state and local government web resources and services.